Location: Couteron
(43.5992°N, 5.4466°E)
Time: 06:16:00
(UTC+00:00)

Daily predictions for brighter satellites

Satellite Brightness Start Highest point End
(mag) Time Altitude Azimuth Time Altitude Azimuth Time Altitude Azimuth
Meteor 2-21 4.5 16:55:40 10° N 17:01:49 68° E 17:07:52 10° SSE
USA 308 4.4 17:01:58 10° NW 17:05:25 23° NNE 17:08:51 10° ENE
CZ-4B R/B 1.4 17:03:36 10° NNE 17:06:46 52° E 17:09:49 10° S
ATLAS 5 CENTAUR R/B 4.2 17:04:46 10° NW 17:06:50 13° NNW 17:09:01 10° N
Cosmos 1606 Rocket 3.5 17:07:10 10° S 17:11:29 67° E 17:15:52 10° NNE
Helios 1A Rocket 4.1 17:08:18 10° ESE 17:11:33 23° ENE 17:14:48 10° NNE
FALCON 9 DEB 2.9 17:11:24 10° SW 17:14:37 87° NNW 17:17:50 10° NE
CZ-4B R/B 3.7 17:09:41 10° S 17:15:16 71° WSW 17:20:48 10° NNW
Okean-O 3.6 17:14:22 10° ESE 17:18:00 25° ENE 17:21:39 10° N
AQUARIUS 4.4 17:15:27 10° S 17:19:55 74° WSW 17:24:27 10° NNW
Cosmos 1656 4.2 17:15:14 10° S 17:20:18 38° ESE 17:25:28 10° NE
SKYMED 2 4.0 17:16:52 10° NNE 17:20:58 39° E 17:25:02 10° SSE
Cosmos 1689 Rocket 2.9 17:19:34 10° NE 17:22:08 28° E 17:24:41 10° SSE
Cosmos 1400 Rocket 3.2 17:19:22 10° SSE 17:23:14 41° E 17:27:06 10° NNE
H-2A R/B 3.3 17:21:58 10° ESE 17:25:57 21° ENE 17:29:58 10° NNE
CZ-4 R/B 2.3 17:25:03 10° SE 17:28:17 26° ENE 17:31:30 10° NNE
PSLV R/B 4.4 17:25:20 10° NNE 17:29:15 38° E 17:33:07 10° SSE
Cosmos 2227 Rocket 2.6 17:24:14 10° NNW 17:29:36 41° ENE 17:34:55 10° SE
Cosmos 2058 4.1 17:27:18 10° NNE 17:30:28 21° ENE 17:33:36 10° ESE
Atlas Centaur 2 4.4 17:24:04 10° SW 17:30:39 26° SSE 17:37:20 10° ESE
Meteor 2-16 Rocket 4.4 17:24:45 10° N 17:30:51 74° E 17:36:56 10° SSE
Cosmos 1892 3.6 17:28:30 10° NNE 17:31:53 28° ENE 17:35:16 10° SE
Cosmos 2263 Rocket 4.2 17:33:52 10° NNE 17:34:19 10° NE 17:34:44 10° NE
Cosmos 1408 3.9 17:33:16 10° NNE 17:36:02 20° ENE 17:37:15 17° E
Cosmos 1244 Rocket 4.4 17:32:15 10° N 17:38:28 71° E 17:44:42 10° SSE
CZ-4C R/B 4.5 17:36:31 10° NNW 17:40:18 15° NNE 17:44:25 10° NE
Cosmos 1300 3.1 17:37:50 10° SSW 17:41:36 66° W 17:45:25 10° N
Cosmos 1953 Rocket 3.7 17:38:24 10° N 17:42:50 78° W 17:47:16 10° S
Cosmos 2058 Rocket 3.0 17:40:24 10° S 17:44:51 75° E 17:49:22 10° NNE
Cosmos 1697 Rocket 3.3 17:40:01 10° SSE 17:44:55 32° ESE 17:49:37 11° NE
IRS-1C Rocket 4.0 17:41:40 10° SSE 17:46:55 79° ENE 17:52:13 10° NNW
CZ-2D R/B 3.2 17:43:24 10° SSE 17:47:07 56° ENE 17:50:52 10° N
SL-4 R/B 3.3 17:44:26 10° NW 17:47:22 23° N 17:49:04 17° NE
SeaSat 1 3.8 17:46:27 18° ENE 17:47:50 21° NE 17:51:26 10° N
NOSS 3-3 (A) 4.3 17:44:17 10° S 17:49:34 40° ESE 17:54:18 15° NE
NOSS 3-3 (C) 4.3 17:44:22 10° S 17:49:41 40° ESE 17:54:24 15° NE
Cosmos 1346 Rocket 3.4 17:47:09 10° N 17:50:49 34° ENE 17:54:07 12° SE
USA 305 3.9 17:47:50 10° NW 17:51:42 31° NNE 17:53:27 23° ENE
Cosmos 1825 3.9 17:50:06 10° NNE 17:51:38 17° NE 17:51:38 17° NE
Cosmos 44 4.0 17:49:08 10° SW 17:53:29 49° NW 17:58:08 10° NNE
Cosmos 1315 Rocket 3.5 17:50:58 10° SSE 17:54:27 31° E 17:56:19 21° NE
USA 215 4.4 17:51:39 16° ENE 17:55:47 30° N 18:01:16 10° NW
USA 306 3.8 17:54:14 10° NW 17:58:08 33° NNE 17:59:35 26° ENE
ERS-2 4.3 17:57:05 10° N 18:00:12 27° WNW 18:03:19 10° SW
SAR-Lupe-4 4.5 17:56:44 10° N 18:00:12 50° WNW 18:03:41 10° SSW
BREEZE-M R/B 4.1 17:57:38 10° WNW 18:01:29 46° NNE 18:05:18 24° ENE
ATLAS 2AS CENTAUR R/B 4.0 17:56:17 10° NNW 18:02:23 25° NNE 18:05:17 20° ENE
Cosmos 968 Rocket 3.4 17:59:57 10° NNW 18:05:09 66° ENE 18:10:17 10° SSE
Cosmos 1340 2.8 18:01:58 10° NNW 18:05:45 73° W 18:09:30 10° S
Cosmos 1980 Rocket 3.1 18:03:05 10° SSE 18:07:18 26° ESE 18:07:18 26° ESE
COSMO-SKYMED 1 3.0 18:04:46 10° N 18:09:05 62° WNW 18:13:21 10° SSW
Cosmos 2297 Rocket 2.2 18:03:54 10° NNW 18:09:36 83° WSW 18:15:15 10° SSE
MOS 1 Rocket 3.6 18:05:23 10° NNE 18:09:54 44° E 18:14:39 10° S
Aureole 3 Rocket 3.6 18:06:43 10° SSW 18:10:30 62° WNW 18:15:47 10° N
Cosmos 1076 Rocket 3.8 18:06:51 10° N 18:10:53 41° ENE 18:11:35 38° ESE
In-Cosmos 22 Rocket 4.2 18:06:37 10° NNW 18:12:00 80° W 18:17:28 10° S
Cosmos 2315 Rocket 4.5 18:08:28 10° SSE 18:13:55 34° E 18:19:24 10° NNE
S3M 3.8 18:08:16 10° S 18:14:19 68° E 18:20:26 10° NNE
CSL-04 Debris 4.2 18:09:09 10° SSE 18:14:25 55° ENE 18:19:46 10° N
SL-08 ROCKET BODY 4.4 18:15:35 10° N 18:21:44 89° ENE 18:27:55 10° S
Lacrosse 5 3.7 18:18:31 10° NW 18:21:58 18° N 18:23:30 16° NNE
YAOGAN 1 2.5 18:17:50 10° SSE 18:22:10 89° ENE 18:26:31 10° NNW
Cosmos 2360 4.3 18:18:10 10° S 18:23:41 52° ESE 18:26:14 30° NE
Cosmos 1486 Rocket 4.1 18:20:18 10° NNW 18:25:39 80° WSW 18:30:57 10° SSE
Milstar 3 4.2 18:23:35 10° SW 18:28:49 23° S 18:31:53 17° SE
Cosmos 1812 Rocket 3.4 18:24:55 10° S 18:29:16 63° E 18:30:36 41° NNE
Cosmos 1455 2.0 18:26:19 10° S 18:30:04 87° E 18:31:13 44° N
CZ-2C R/B 3.3 18:26:22 10° SSE 18:32:12 82° WSW 18:37:53 10° NNW
Cosmos 1503 Rocket 3.9 18:30:15 10° NNW 18:35:29 72° ENE 18:37:12 43° SE
Cosmos 44 Rocket 3.6 18:31:33 10° SSW 18:35:27 46° SE 18:35:27 46° SE
Cosmos 2278 3.9 18:31:31 10° S 18:36:46 48° ESE 18:36:46 48° ESE
Cosmos 2219 4.3 18:34:21 10° NW 18:39:49 45° WSW 18:45:15 10° S
DMSP B5D1-3 4.4 18:35:12 10° NNE 18:40:23 89° W 18:45:32 10° SSW
USA 307 3.3 18:37:06 10° NW 18:40:52 52° N 18:40:52 52° N
Meteor 2-10 Rocket 3.9 18:38:10 10° SSW 18:43:28 65° WNW 18:48:35 10° N
USA 308 3.4 18:41:55 10° NW 18:45:31 51° N 18:45:31 51° N
Cosmos 1354 Rocket 3.8 18:41:46 10° NNW 18:47:03 79° ENE 18:47:53 63° SE
Cosmos 2082 3.6 18:42:55 10° NNW 18:48:41 88° WSW 18:50:46 42° SSE
Okean-O 4.3 18:50:21 10° SSW 18:54:19 33° W 18:58:21 10° NNW
Cosmos 1992 Rocket 4.5 18:50:29 10° SSW 18:55:36 59° WNW 18:59:48 16° N
ARGOS 3.0 18:54:41 52° SSE 18:56:05 87° ENE 19:01:33 10° NNW
Cosmos 2369 3.8 18:54:51 10° SSW 19:00:34 75° WNW 19:03:10 34° NNE
CZ-4 R/B 3.6 19:00:04 10° SSW 19:03:16 24° W 19:06:26 10° NW
H-2A R/B 2.6 18:59:35 10° S 19:04:54 59° W 19:10:18 10° NNW
GEOS 3 Rocket 3.6 19:05:41 73° S 19:06:05 79° SW 19:11:31 10° NW
Cosmos 2227 Rocket 3.9 19:08:35 10° NW 19:13:29 31° WSW 19:18:22 10° SSW
CSL-04 Rocket 4.5 19:08:51 10° S 19:14:13 50° W 19:19:36 10° NNW
Atlas Centaur 2 4.0 19:12:11 10° WSW 19:19:28 32° S 19:20:08 32° S
Cosmos 2263 Rocket 3.5 19:14:13 10° NNW 19:17:15 30° N 19:17:15 30° N
Timation 1 Rocket 4.4 19:14:40 10° NNW 19:20:34 78° W 19:20:34 78° W
SeaSat 1 3.3 19:26:16 46° NW 19:26:16 46° NW 19:29:50 10° NNW
Cosmos 1697 Rocket 3.9 19:23:32 10° SW 19:28:45 39° WNW 19:31:25 25° N
CZ-4C R/B 3.8 19:24:34 10° NNW 19:29:36 34° NNE 19:29:36 34° NNE
NOSS 3-4 (A) 3.9 19:25:27 10° NNW 19:31:39 65° NNE 19:31:39 65° NNE
NOSS 3-4 (C) 3.9 19:25:33 10° NNW 19:31:43 64° N 19:31:43 64° N
DEBRIS 4.4 19:21:55 10° WSW 19:36:43 62° NNW 19:36:49 62° NNW
USA 215 3.7 19:39:00 49° N 19:39:00 49° N 19:44:18 10° NW
Cosmos 1980 Rocket 3.6 19:45:56 10° SW 19:49:11 32° WSW 19:49:11 32° WSW
ATLAS 2AS CENTAUR R/B 3.3 19:47:11 10° NW 19:52:43 51° NNW 19:52:43 51° NNW
Lacrosse 5 4.4 20:01:43 10° NW 20:02:41 15° NNW 20:02:41 15° NNW
